When you browse on this site, cookies collect data to enhance your experience and personalize the content and advertising you see.
Visit our Privacy Policy to learn more. By continuing to use the site, you agree to this use of cookies and data.

Stündliche Wetter Aahalden

Heute, 6 August, Donnerstag

Zeit Temperatur Niederschläge Wind Luftdruck Luftfeuchtigkeit
00:00 +13°C° 0 mm 1 m/S 711 mmHg 94%
01:00 +12°C° 0 mm 0 m/S 711 mmHg 94%
02:00 +12°C° 0 mm 0 m/S 711 mmHg 95%
03:00 +11°C° 0 mm 0 m/S 711 mmHg 95%
04:00 +11°C° 0 mm 0 m/S 711 mmHg 95%
05:00 +12°C° 0 mm 0 m/S 711 mmHg 93%
06:00 +13°C° 0 mm 0 m/S 711 mmHg 90%
07:00 +14°C° 0 mm 0 m/S 711 mmHg 88%
08:00 +16°C° 0 mm 0 m/S 712 mmHg 81%
09:00 +20°C° 0 mm 1 m/S 712 mmHg 74%
10:00 +22°C° 0 mm 1 m/S 713 mmHg 66%
11:00 +24°C° 0 mm 1 m/S 713 mmHg 62%
12:00 +25°C° 0 mm 2 m/S 713 mmHg 58%
13:00 +26°C° 0 mm 2 m/S 713 mmHg 54%
14:00 +26°C° 0 mm 2 m/S 713 mmHg 55%
15:00 +26°C° 0 mm 2 m/S 712 mmHg 56%
16:00 +26°C° 0 mm 2 m/S 712 mmHg 57%
17:00 +25°C° 0 mm 2 m/S 712 mmHg 66%
18:00 +23°C° 0 mm 1 m/S 712 mmHg 75%
19:00 +22°C° 0 mm 1 m/S 712 mmHg 84%
20:00 +21°C° 0 mm 1 m/S 713 mmHg 87%
21:00 +19°C° 0 mm 1 m/S 713 mmHg 91%
22:00 +18°C° 0 mm 1 m/S 713 mmHg 95%
23:00 +16°C° 0 mm 1 m/S 713 mmHg 95%

Morgen, 7 August, Freitag

Zeit Temperatur Niederschläge Wind Luftdruck Luftfeuchtigkeit
00:00 +15°C° 0 mm 0 m/S 713 mmHg 95%
01:00 +14°C° 0 mm 0 m/S 713 mmHg 95%
02:00 +14°C° 0 mm 0 m/S 713 mmHg 95%
03:00 +14°C° 0 mm 0 m/S 712 mmHg 95%
04:00 +14°C° 0 mm 0 m/S 712 mmHg 95%
05:00 +15°C° 0 mm 0 m/S 713 mmHg 93%
06:00 +16°C° 0 mm 0 m/S 713 mmHg 91%
07:00 +17°C° 0 mm 0 m/S 713 mmHg 89%
08:00 +18°C° 0 mm 0 m/S 713 mmHg 83%
09:00 +22°C° 0 mm 1 m/S 713 mmHg 78%
10:00 +23°C° 0 mm 1 m/S 713 mmHg 72%
11:00 +25°C° 0 mm 1 m/S 713 mmHg 67%
12:00 +26°C° 0 mm 2 m/S 713 mmHg 61%
13:00 +28°C° 0 mm 2 m/S 713 mmHg 56%
14:00 +28°C° 0 mm 2 m/S 713 mmHg 56%
15:00 +28°C° 0 mm 2 m/S 713 mmHg 56%
16:00 +28°C° 0 mm 2 m/S 713 mmHg 57%
17:00 +27°C° 0 mm 1 m/S 713 mmHg 66%
18:00 +25°C° 0 mm 1 m/S 713 mmHg 75%
19:00 +24°C° 0 mm 1 m/S 713 mmHg 84%
20:00 +22°C° 0 mm 1 m/S 713 mmHg 87%
21:00 +21°C° 0 mm 1 m/S 713 mmHg 90%
22:00 +20°C° 0 mm 1 m/S 713 mmHg 92%
23:00 +19°C° 0 mm 1 m/S 713 mmHg 92%

übermorgen, 8 August, Samstag

Zeit Temperatur Niederschläge Wind Luftdruck Luftfeuchtigkeit
00:00 +19°C° 0 mm 1 m/S 713 mmHg 92%
01:00 +18°C° 0 mm 1 m/S 713 mmHg 92%
02:00 +18°C° 0 mm 1 m/S 713 mmHg 92%
03:00 +16°C° 0 mm 0 m/S 713 mmHg 91%
04:00 +15°C° 0 mm 0 m/S 713 mmHg 90%
05:00 +16°C° 0 mm 0 m/S 713 mmHg 89%
06:00 +17°C° 0 mm 0 m/S 713 mmHg 87%
07:00 +18°C° 0 mm 0 m/S 713 mmHg 85%
08:00 +21°C° 0 mm 0 m/S 713 mmHg 77%
09:00 +25°C° 0 mm 1 m/S 714 mmHg 70%
10:00 +27°C° 0 mm 1 m/S 714 mmHg 63%
11:00 +28°C° 0 mm 1 m/S 714 mmHg 58%
12:00 +29°C° 0 mm 1 m/S 714 mmHg 53%
13:00 +30°C° 0 mm 1 m/S 713 mmHg 48%
14:00 +30°C° 0 mm 1 m/S 713 mmHg 48%
15:00 +30°C° 0 mm 1 m/S 713 mmHg 48%
16:00 +30°C° 0 mm 1 m/S 713 mmHg 47%
17:00 +28°C° 0 mm 1 m/S 713 mmHg 57%
18:00 +26°C° 0 mm 1 m/S 713 mmHg 67%
19:00 +25°C° 0 mm 1 m/S 713 mmHg 77%
20:00 +23°C° 0 mm 1 m/S 713 mmHg 81%
21:00 +22°C° 0 mm 1 m/S 713 mmHg 84%
22:00 +21°C° 0 mm 1 m/S 713 mmHg 87%
23:00 +20°C° 0 mm 1 m/S 713 mmHg 87%

9 August, Sonntag

Zeit Temperatur Niederschläge Wind Luftdruck Luftfeuchtigkeit
00:00 +20°C° 0 mm 1 m/S 712 mmHg 87%
01:00 +19°C° 0 mm 1 m/S 712 mmHg 87%
02:00 +19°C° 0 mm 1 m/S 712 mmHg 87%
03:00 +19°C° 0 mm 1 m/S 712 mmHg 86%
04:00 +18°C° 0 mm 1 m/S 712 mmHg 86%
05:00 +17°C° 0 mm 0 m/S 712 mmHg 84%
06:00 +18°C° 0 mm 0 m/S 712 mmHg 83%
07:00 +19°C° 0 mm 0 m/S 712 mmHg 81%
08:00 +21°C° 0 mm 0 m/S 712 mmHg 74%
09:00 +25°C° 0 mm 1 m/S 712 mmHg 68%
10:00 +27°C° 0 mm 1 m/S 713 mmHg 61%
11:00 +29°C° 0 mm 1 m/S 713 mmHg 56%
12:00 +30°C° 0 mm 1 m/S 712 mmHg 52%
13:00 +31°C° 0 mm 1 m/S 712 mmHg 47%
14:00 +31°C° 0 mm 1 m/S 712 mmHg 47%
15:00 +31°C° 0 mm 1 m/S 712 mmHg 47%
16:00 +31°C° 0 mm 1 m/S 712 mmHg 46%
17:00 +29°C° 0 mm 1 m/S 712 mmHg 56%
18:00 +27°C° 0 mm 1 m/S 711 mmHg 66%
19:00 +25°C° 0 mm 1 m/S 711 mmHg 75%
20:00 +24°C° 0 mm 1 m/S 711 mmHg 79%
21:00 +22°C° 0 mm 1 m/S 711 mmHg 82%
22:00 +21°C° 0 mm 1 m/S 711 mmHg 85%
23:00 +21°C° 0 mm 1 m/S 711 mmHg 84%

10 August, Montag

Zeit Temperatur Niederschläge Wind Luftdruck Luftfeuchtigkeit
00:00 +20°C° 0 mm 1 m/S 711 mmHg 84%
01:00 +20°C° 0 mm 1 m/S 711 mmHg 84%
02:00 +19°C° 0 mm 1 m/S 711 mmHg 83%
03:00 +19°C° 0 mm 1 m/S 711 mmHg 82%
04:00 +19°C° 0 mm 1 m/S 711 mmHg 81%
05:00 +18°C° 0 mm 0 m/S 711 mmHg 80%
06:00 +19°C° 0 mm 0 m/S 711 mmHg 79%
07:00 +20°C° 0 mm 0 m/S 712 mmHg 77%
08:00 +22°C° 0 mm 0 m/S 712 mmHg 71%
09:00 +26°C° 0 mm 1 m/S 712 mmHg 64%
10:00 +28°C° 0 mm 1 m/S 712 mmHg 57%
11:00 +29°C° 0 mm 1 m/S 712 mmHg 54%
12:00 +31°C° 0 mm 1 m/S 712 mmHg 50%
13:00 +32°C° 0 mm 1 m/S 712 mmHg 47%
14:00 +32°C° 0 mm 1 m/S 712 mmHg 47%
15:00 +32°C° 0 mm 1 m/S 712 mmHg 47%
16:00 +31°C° 0 mm 1 m/S 712 mmHg 47%
17:00 +30°C° 0.1 mm 1 m/S 712 mmHg 56%
18:00 +28°C° 0.1 mm 1 m/S 712 mmHg 66%
19:00 +24°C° 0.1 mm 0 m/S 712 mmHg 75%
20:00 +25°C° 0 mm 1 m/S 712 mmHg 77%
21:00 +23°C° 0 mm 1 m/S 712 mmHg 80%
22:00 +22°C° 0 mm 1 m/S 712 mmHg 82%
23:00 +22°C° 0 mm 1 m/S 712 mmHg 82%

11 August, Dienstag

Zeit Temperatur Niederschläge Wind Luftdruck Luftfeuchtigkeit
00:00 +21°C° 0 mm 1 m/S 712 mmHg 82%
01:00 +21°C° 0 mm 1 m/S 712 mmHg 82%
02:00 +20°C° 0 mm 1 m/S 712 mmHg 81%
03:00 +20°C° 0 mm 1 m/S 712 mmHg 80%
04:00 +20°C° 0 mm 1 m/S 712 mmHg 79%
05:00 +21°C° 0 mm 1 m/S 712 mmHg 79%
06:00 +20°C° 0 mm 0 m/S 712 mmHg 79%
07:00 +20°C° 0 mm 0 m/S 712 mmHg 79%
08:00 +22°C° 0 mm 0 m/S 713 mmHg 72%
09:00 +27°C° 0 mm 1 m/S 713 mmHg 66%
10:00 +29°C° 0 mm 1 m/S 713 mmHg 60%
11:00 +30°C° 0 mm 1 m/S 713 mmHg 56%
12:00 +31°C° 0 mm 1 m/S 713 mmHg 53%
13:00 +32°C° 0 mm 1 m/S 713 mmHg 50%
14:00 +32°C° 0.2 mm 1 m/S 713 mmHg 50%
15:00 +31°C° 0.2 mm 1 m/S 713 mmHg 50%
16:00 +31°C° 0.2 mm 1 m/S 713 mmHg 51%
17:00 +29°C° 0.3 mm 1 m/S 712 mmHg 60%
18:00 +28°C° 0.3 mm 1 m/S 712 mmHg 69%
19:00 +26°C° 0.3 mm 1 m/S 712 mmHg 78%
20:00 +24°C° 0.3 mm 1 m/S 712 mmHg 80%
21:00 +23°C° 0.3 mm 1 m/S 712 mmHg 83%
22:00 +22°C° 0.3 mm 1 m/S 712 mmHg 86%
23:00 +21°C° 0 mm 1 m/S 712 mmHg 86%
Mehr zeigen